When you browse on this site, cookies collect data to enhance your experience and personalize the content and advertising you see.
Visit our Privacy Policy to learn more. By continuing to use the site, you agree to this use of cookies and data.
  • In Portugal
  • List of Countries
  • For 7 days
  • Water Temperature
  • Satellite Maps
  • Weather Map
  • Weather Widgets
  • user-avatar
    Login

    Hourly Weather Biatris

    Today, 25 May, Saturday

    Time Temperature Precipitation Wind Pressure Humidity
    00:00 +14°C° 0 mm 4 mps 657 mmHg 82%
    01:00 +13°C° 0 mm 4 mps 656 mmHg 84%
    02:00 +13°C° 0 mm 3 mps 656 mmHg 88%
    03:00 +12°C° 0.1 mm 3 mps 656 mmHg 89%
    04:00 +12°C° 0.1 mm 3 mps 656 mmHg 90%
    05:00 +12°C° 0.1 mm 3 mps 656 mmHg 91%
    06:00 +13°C° 0 mm 3 mps 656 mmHg 86%
    07:00 +14°C° 0 mm 3 mps 657 mmHg 81%
    08:00 +16°C° 0 mm 3 mps 658 mmHg 73%
    09:00 +18°C° 0 mm 3 mps 658 mmHg 62%
    10:00 +20°C° 0 mm 3 mps 658 mmHg 50%
    11:00 +24°C° 0 mm 3 mps 658 mmHg 38%
    12:00 +24°C° 0 mm 3 mps 658 mmHg 36%
    13:00 +24°C° 0 mm 3 mps 657 mmHg 34%
    14:00 +24°C° 0 mm 2 mps 657 mmHg 33%
    15:00 +23°C° 0 mm 2 mps 656 mmHg 35%
    16:00 +21°C° 0 mm 2 mps 656 mmHg 38%
    17:00 +20°C° 0 mm 2 mps 656 mmHg 40%
    18:00 +19°C° 0 mm 3 mps 656 mmHg 45%
    19:00 +18°C° 0 mm 3 mps 656 mmHg 50%
    20:00 +17°C° 0 mm 4 mps 656 mmHg 54%
    21:00 +15°C° 0 mm 4 mps 656 mmHg 58%
    22:00 +14°C° 0 mm 4 mps 656 mmHg 62%
    23:00 +13°C° 0 mm 4 mps 656 mmHg 65%

    Tomorrow, 26 May, Sunday

    Time Temperature Precipitation Wind Pressure Humidity
    00:00 +13°C° 0 mm 3 mps 656 mmHg 68%
    01:00 +12°C° 0 mm 3 mps 656 mmHg 71%
    02:00 +11°C° 0 mm 3 mps 655 mmHg 73%
    03:00 +12°C° 0 mm 2 mps 655 mmHg 77%
    04:00 +10°C° 0 mm 2 mps 655 mmHg 81%
    05:00 +10°C° 0 mm 2 mps 655 mmHg 85%
    06:00 +12°C° 0 mm 2 mps 655 mmHg 79%
    07:00 +12°C° 0 mm 3 mps 656 mmHg 73%
    08:00 +14°C° 0 mm 3 mps 656 mmHg 68%
    09:00 +17°C° 0 mm 3 mps 657 mmHg 57%
    10:00 +20°C° 0 mm 2 mps 658 mmHg 47%
    11:00 +24°C° 0 mm 2 mps 658 mmHg 37%
    12:00 +24°C° 0 mm 2 mps 658 mmHg 34%
    13:00 +25°C° 0 mm 2 mps 657 mmHg 31%
    14:00 +26°C° 0 mm 2 mps 657 mmHg 29%
    15:00 +25°C° 0 mm 2 mps 656 mmHg 31%
    16:00 +23°C° 0 mm 2 mps 656 mmHg 34%
    17:00 +21°C° 0 mm 2 mps 655 mmHg 36%
    18:00 +19°C° 0 mm 3 mps 655 mmHg 44%
    19:00 +18°C° 0 mm 4 mps 655 mmHg 52%
    20:00 +15°C° 0 mm 4 mps 655 mmHg 59%
    21:00 +14°C° 0 mm 4 mps 655 mmHg 65%
    22:00 +13°C° 0 mm 3 mps 655 mmHg 70%
    23:00 +12°C° 0 mm 3 mps 655 mmHg 76%

    Day after tomorrow, 27 May, Monday

    Time Temperature Precipitation Wind Pressure Humidity
    00:00 +12°C° 0 mm 3 mps 655 mmHg 78%
    01:00 +12°C° 0 mm 2 mps 654 mmHg 81%
    02:00 +10°C° 0 mm 2 mps 654 mmHg 84%
    03:00 +10°C° 0 mm 2 mps 654 mmHg 85%
    04:00 +9°C° 0 mm 2 mps 654 mmHg 85%
    05:00 +9°C° 0 mm 2 mps 654 mmHg 86%
    06:00 +10°C° 0 mm 2 mps 655 mmHg 79%
    07:00 +13°C° 0 mm 2 mps 655 mmHg 72%
    08:00 +14°C° 0 mm 2 mps 656 mmHg 64%
    09:00 +17°C° 0 mm 2 mps 657 mmHg 53%
    10:00 +20°C° 0 mm 2 mps 657 mmHg 42%
    11:00 +24°C° 0 mm 1 mps 658 mmHg 31%
    12:00 +25°C° 0 mm 1 mps 657 mmHg 28%
    13:00 +26°C° 0 mm 2 mps 657 mmHg 24%
    14:00 +27°C° 0 mm 2 mps 656 mmHg 20%
    15:00 +25°C° 0 mm 2 mps 655 mmHg 22%
    16:00 +24°C° 0 mm 2 mps 655 mmHg 24%
    17:00 +23°C° 0 mm 2 mps 654 mmHg 25%
    18:00 +20°C° 0 mm 2 mps 654 mmHg 32%
    19:00 +18°C° 0 mm 3 mps 654 mmHg 39%
    20:00 +14°C° 0 mm 3 mps 654 mmHg 46%
    21:00 +14°C° 0 mm 3 mps 654 mmHg 50%
    22:00 +13°C° 0 mm 3 mps 655 mmHg 53%
    23:00 +12°C° 0 mm 3 mps 655 mmHg 57%

    28 May, Tuesday

    Time Temperature Precipitation Wind Pressure Humidity
    00:00 +12°C° 0 mm 3 mps 654 mmHg 64%
    01:00 +12°C° 0 mm 2 mps 654 mmHg 71%
    02:00 +10°C° 0 mm 2 mps 654 mmHg 78%
    03:00 +10°C° 0 mm 2 mps 654 mmHg 81%
    04:00 +9°C° 0 mm 2 mps 653 mmHg 84%
    05:00 +9°C° 0 mm 2 mps 653 mmHg 88%
    06:00 +12°C° 0 mm 2 mps 654 mmHg 80%
    07:00 +13°C° 0 mm 2 mps 655 mmHg 72%
    08:00 +15°C° 0 mm 2 mps 656 mmHg 64%
    09:00 +19°C° 0 mm 1 mps 657 mmHg 53%
    10:00 +22°C° 0 mm 1 mps 657 mmHg 41%
    11:00 +26°C° 0 mm 1 mps 658 mmHg 30%
    12:00 +26°C° 0 mm 1 mps 657 mmHg 27%
    13:00 +27°C° 0 mm 1 mps 657 mmHg 24%
    14:00 +28°C° 0 mm 1 mps 656 mmHg 21%
    15:00 +27°C° 0 mm 1 mps 655 mmHg 24%
    16:00 +25°C° 0 mm 1 mps 655 mmHg 26%
    17:00 +23°C° 0 mm 1 mps 654 mmHg 28%
    18:00 +21°C° 0 mm 1 mps 654 mmHg 34%
    19:00 +18°C° 0 mm 2 mps 654 mmHg 40%
    20:00 +16°C° 0 mm 2 mps 654 mmHg 46%
    21:00 +15°C° 0 mm 2 mps 654 mmHg 49%
    22:00 +15°C° 0 mm 2 mps 654 mmHg 52%
    23:00 +14°C° 0 mm 2 mps 654 mmHg 55%

    29 May, Wednesday

    Time Temperature Precipitation Wind Pressure Humidity
    00:00 +13°C° 0 mm 2 mps 654 mmHg 57%
    01:00 +13°C° 0 mm 2 mps 654 mmHg 60%
    02:00 +12°C° 0 mm 1 mps 653 mmHg 62%
    03:00 +12°C° 0 mm 1 mps 653 mmHg 65%
    04:00 +12°C° 0 mm 1 mps 653 mmHg 69%
    05:00 +11°C° 0 mm 1 mps 653 mmHg 72%
    06:00 +13°C° 0 mm 1 mps 654 mmHg 67%
    07:00 +15°C° 0 mm 1 mps 655 mmHg 62%
    08:00 +16°C° 0 mm 1 mps 656 mmHg 58%
    09:00 +20°C° 0 mm 1 mps 657 mmHg 49%
    10:00 +23°C° 0 mm 1 mps 657 mmHg 40%
    11:00 +27°C° 0 mm 1 mps 658 mmHg 31%
    12:00 +27°C° 0 mm 1 mps 657 mmHg 28%
    13:00 +28°C° 0 mm 1 mps 656 mmHg 26%
    14:00 +28°C° 0 mm 1 mps 656 mmHg 24%
    15:00 +27°C° 0 mm 1 mps 655 mmHg 27%
    16:00 +25°C° 0 mm 1 mps 655 mmHg 29%
    17:00 +24°C° 0 mm 2 mps 654 mmHg 32%
    18:00 +21°C° 0 mm 2 mps 654 mmHg 38%
    19:00 +20°C° 0 mm 3 mps 655 mmHg 43%
    20:00 +18°C° 0 mm 3 mps 655 mmHg 49%
    21:00 +17°C° 0 mm 3 mps 655 mmHg 51%
    22:00 +17°C° 0 mm 3 mps 655 mmHg 52%
    23:00 +16°C° 0 mm 3 mps 655 mmHg 54%

    30 May, Thursday

    Time Temperature Precipitation Wind Pressure Humidity
    00:00 +15°C° 0 mm 2 mps 654 mmHg 60%
    01:00 +14°C° 0 mm 2 mps 654 mmHg 65%
    02:00 +13°C° 0 mm 1 mps 653 mmHg 71%
    03:00 +12°C° 0 mm 1 mps 653 mmHg 74%
    04:00 +12°C° 0 mm 1 mps 653 mmHg 78%
    05:00 +12°C° 0 mm 1 mps 653 mmHg 82%
    06:00 +13°C° 0 mm 1 mps 654 mmHg 76%
    07:00 +15°C° 0 mm 1 mps 655 mmHg 71%
    08:00 +16°C° 0 mm 1 mps 655 mmHg 66%
    09:00 +20°C° 0 mm 1 mps 656 mmHg 55%
    10:00 +24°C° 0 mm 1 mps 657 mmHg 45%
    11:00 +25°C° 0 mm 0 mps 657 mmHg 35%
    12:00 +24°C° 0 mm 0 mps 656 mmHg 35%
    13:00 +23°C° 0 mm 0 mps 655 mmHg 35%
    14:00 +22°C° 0 mm 0 mps 654 mmHg 35%
    15:00 +21°C° 0 mm 0 mps 654 mmHg 37%
    16:00 +21°C° 0 mm 0 mps 654 mmHg 38%
    17:00 +20°C° 0 mm 0 mps 654 mmHg 40%
    18:00 +19°C° 0 mm 0 mps 654 mmHg 42%
    19:00 +21°C° 0 mm 1 mps 654 mmHg 44%
    20:00 +20°C° 0 mm 1 mps 654 mmHg 47%
    21:00 +19°C° 0 mm 1 mps 654 mmHg 49%
    22:00 +19°C° 0 mm 1 mps 654 mmHg 51%
    23:00 +18°C° 0 mm 1 mps 654 mmHg 53%
    Show more